Randolph, MN

1:39 AM CDT on September 29, 2016 (GMT -0500)
Stanton

Weather History for KSYN - May, 2013

Change the Weather History Date:

Monday, May 6, 2013

  Actual Average (KLVN) Record (KLVN)
Temperature  
Mean Temperature 56 °F -  
Max Temperature 72 °F 67 °F 89 °F (2016)
Min Temperature 39 °F 42 °F 24 °F (1989)
Degree Days  
Heating Degree Days 10    
Growing Degree Days 6 (Base 50)    
Moisture  
Dew Point 45 °F    
Average Humidity 68    
Maximum Humidity 93    
Minimum Humidity 34    
Precipitation  
Precipitation 0.00 in - - ()
Sea Level Pressure  
Sea Level Pressure 30.06 in    
Wind  
Wind Speed 2 mph (SW)    
Max Wind Speed 6 mph    
Max Gust Speed -    
Visibility 8 miles    
Events Fog    
Averages and records for this station are not official NWS values.
T = Trace of Precipitation, MM = Missing Value Source: NWS Daily Summary

Daily Weather History Graph

Daily Weather History Graph

Search for Another Location

Airport or City:

Trip Planner

Search our weather history database for the weather conditions in past years. The results will help you decide how hot, cold, wet, or windy it might be!

Date:

Astronomy

May. 06, 2013 Rise Set
Actual Time 5:55 AM CDT 8:22 PM CDT
Civil Twilight 5:22 AM CDT 8:55 PM CDT
Nautical Twilight 4:41 AM CDT 9:36 PM CDT
Astronomical Twilight 3:56 AM CDT 10:22 PM CDT
Moon 4:05 AM CDT (5/6) 5:17 PM CDT (5/6)
Length of Visible Light 15h 32m
Length of Day
14h 27m
Waning Crescent, 11% of the Moon is Illuminated
May 6
Waning Crescent
May 9
New
May 17
First Quarter
May 24
Full
May 31
Last Quarter

Hourly Weather History & Observations

Time (CDT) Temp. Windchill Dew Point Humidity Pressure Visibility Wind Dir Wind Speed Gust Speed Precip Events Conditions
12:13 AM 47.5 °F - 45.0 °F 91% 30.07 in 10.0 mi SSW 3.5 mph - N/A   Unknown
12:34 AM 47.1 °F - 44.4 °F 90% 30.07 in 10.0 mi South 4.6 mph - N/A   Unknown
12:53 AM 46.8 °F - 44.1 °F 90% 30.07 in 7.0 mi South 3.5 mph - N/A   Unknown
1:34 AM 45.5 °F 44.2 °F 43.0 °F 91% 30.07 in 7.0 mi South 3.5 mph - N/A   Unknown
1:53 AM 45.0 °F 43.5 °F 42.4 °F 91% 30.07 in 7.0 mi South 3.5 mph - N/A   Unknown
2:14 AM 45.1 °F - 42.8 °F 91% 30.07 in 7.0 mi Calm Calm - N/A   Unknown
2:34 AM 43.9 °F - 41.7 °F 92% 30.06 in 1.8 mi Calm Calm - N/A   Mist
2:53 AM 43.5 °F - 41.2 °F 91% 30.06 in 1.5 mi Calm Calm - N/A   Unknown
3:14 AM 43.0 °F - 41.0 °F 93% 30.06 in 4.0 mi Calm Calm - N/A   Mist
3:34 AM 42.3 °F - 40.3 °F 93% 30.07 in 4.0 mi Calm Calm - N/A   Mist
3:53 AM 43.3 °F - 41.4 °F 93% 30.07 in 5.0 mi Calm Calm - N/A   Mist
4:14 AM 42.4 °F - 40.5 °F 93% 30.07 in 4.0 mi Calm Calm - N/A   Mist
4:34 AM 41.4 °F - 39.4 °F 93% 30.07 in 5.0 mi Calm Calm - N/A   Mist
4:53 AM 42.1 °F - 40.1 °F 93% 30.07 in 4.0 mi Calm Calm - N/A   Mist
5:14 AM 40.8 °F - 39.0 °F 93% 30.07 in 4.0 mi Calm Calm - N/A   Mist
5:33 AM 40.3 °F - 38.3 °F 93% 30.08 in 0.5 mi Calm Calm - N/A Fog Fog
5:54 AM 40.3 °F 38.2 °F 38.5 °F 93% 30.08 in 2.0 mi South 3.5 mph - N/A   Mist
6:13 AM 40.6 °F 38.6 °F 38.8 °F 93% 30.08 in 2.5 mi SSW 3.5 mph - N/A   Mist
6:34 AM 39.4 °F 37.2 °F 37.6 °F 93% 30.08 in 2.5 mi SSW 3.5 mph - N/A   Mist
6:54 AM 40.5 °F - 38.7 °F 93% 30.09 in 2.0 mi Calm Calm - N/A   Mist
7:13 AM 41.7 °F - 39.9 °F 93% 30.10 in 4.0 mi Calm Calm - N/A   Mist
7:34 AM 44.4 °F - 42.6 °F 93% 30.10 in 5.0 mi Calm Calm - N/A   Mist
7:54 AM 46.6 °F - 44.8 °F 93% 30.10 in 7.0 mi Calm Calm - N/A   Unknown
8:14 AM 48.4 °F - 46.4 °F 93% 30.10 in 10.0 mi Calm Calm - N/A   Unknown
8:33 AM 50.7 °F - 46.6 °F 86% 30.10 in 10.0 mi Calm Calm - N/A   Unknown
8:54 AM 52.7 °F - 46.8 °F 80% 30.10 in 10.0 mi Calm Calm - N/A   Unknown
9:14 AM 54.5 °F - 47.1 °F 76% 30.10 in 10.0 mi Calm Calm - N/A   Unknown
9:33 AM 56.7 °F - 47.1 °F 70% 30.10 in 10.0 mi Calm Calm - N/A   Unknown
9:54 AM 57.7 °F - 47.5 °F 69% 30.10 in 10.0 mi Calm Calm - N/A   Unknown
10:14 AM 59.0 °F - 47.3 °F 65% 30.10 in 10.0 mi Calm Calm - N/A   Unknown
10:33 AM 61.0 °F - 47.8 °F 62% 30.09 in 10.0 mi NW 3.5 mph - N/A   Unknown
10:54 AM 63.5 °F - 48.7 °F 59% 30.09 in 10.0 mi Calm Calm - N/A   Unknown
11:14 AM 64.4 °F - 48.6 °F 56% 30.09 in 10.0 mi Calm Calm - N/A   Unknown
11:32 AM 65.8 °F - 49.3 °F 55% 30.09 in 10.0 mi Calm Calm - N/A   Clear
11:53 AM 66.4 °F - 48.9 °F 53% 30.09 in 10.0 mi North 4.6 mph - N/A   Clear
12:14 PM 67.3 °F - 48.6 °F 51% 30.08 in 10.0 mi NNE 4.6 mph - N/A   Clear
12:34 PM 67.6 °F - 47.3 °F 48% 30.08 in 10.0 mi Calm Calm - N/A   Clear
12:53 PM 69.1 °F - 47.8 °F 47% 30.07 in 10.0 mi Calm Calm - N/A   Clear
1:14 PM 68.9 °F - 46.6 °F 45% 30.07 in 10.0 mi Calm Calm - N/A   Clear
1:34 PM 70.9 °F - 47.8 °F 44% 30.07 in 10.0 mi ENE 4.6 mph - N/A   Clear
1:53 PM 70.9 °F - 48.4 °F 45% 30.06 in 10.0 mi NW 5.8 mph - N/A   Clear
2:14 PM 70.9 °F - 47.5 °F 43% 30.06 in 10.0 mi West 3.5 mph - N/A   Clear
2:34 PM 71.4 °F - 47.5 °F 42% 30.05 in 10.0 mi Calm Calm - N/A   Clear
2:53 PM 71.8 °F - 47.1 °F 41% 30.04 in 10.0 mi WNW 4.6 mph - N/A   Clear
3:14 PM 71.4 °F - 46.0 °F 40% 30.04 in 10.0 mi Calm Calm - N/A   Clear
3:34 PM 72.5 °F - 43.2 °F 35% 30.03 in 10.0 mi SW 4.6 mph - N/A   Clear
3:54 PM 72.5 °F - 42.8 °F 34% 30.03 in 10.0 mi SSW 4.6 mph - N/A   Clear
4:13 PM 72.3 °F - 42.8 °F 35% 30.02 in 10.0 mi Calm Calm - N/A   Clear
4:33 PM 71.8 °F - 42.4 °F 35% 30.02 in 10.0 mi Calm Calm - N/A   Clear
4:54 PM 72.0 °F - 44.2 °F 37% 30.02 in 10.0 mi Calm Calm - N/A   Scattered Clouds
5:13 PM 71.8 °F - 43.5 °F 36% 30.02 in 10.0 mi Calm Calm - N/A   Scattered Clouds
5:54 PM 72.7 °F - 43.0 °F 34% 30.01 in 10.0 mi Calm Calm - N/A   Clear
6:13 PM 72.1 °F - 43.2 °F 35% 30.01 in 10.0 mi Calm Calm - N/A   Clear
6:33 PM 71.6 °F - 44.2 °F 37% 30.01 in 10.0 mi Calm Calm - N/A   Clear
6:54 PM 71.6 °F - 43.5 °F 36% 30.01 in 10.0 mi Calm Calm - N/A   Clear
7:13 PM 70.9 °F - 47.7 °F 44% 30.01 in 10.0 mi Calm Calm - N/A   Clear
7:33 PM 71.1 °F - 45.1 °F 39% 30.01 in 10.0 mi Calm Calm - N/A   Clear
8:13 PM 67.5 °F - 52.7 °F 59% 30.01 in 10.0 mi Calm Calm - N/A   Clear
8:33 PM 66.9 °F - 50.5 °F 56% 30.01 in 10.0 mi Calm Calm - N/A   Clear
8:54 PM 65.3 °F - 51.8 °F 62% 30.01 in 10.0 mi Calm Calm - N/A   Clear
9:13 PM 63.0 °F - 51.4 °F 66% 30.01 in 10.0 mi Calm Calm - N/A   Clear
9:33 PM 62.8 °F - 52.0 °F 68% 30.02 in 10.0 mi Calm Calm - N/A   Clear
9:54 PM 61.2 °F - 52.0 °F 72% 30.02 in 10.0 mi Calm Calm - N/A   Clear
10:13 PM 59.9 °F - 53.2 °F 79% 30.02 in 10.0 mi Calm Calm - N/A   Clear
10:33 PM 57.9 °F - 52.0 °F 81% 30.03 in 10.0 mi South 3.5 mph - N/A   Clear
10:54 PM 57.6 °F - 52.0 °F 82% 30.03 in 10.0 mi SSW 3.5 mph - N/A   Clear
11:14 PM 57.0 °F - 51.4 °F 82% 30.03 in 10.0 mi SSW 4.6 mph - N/A   Clear
11:33 PM 57.7 °F - 50.7 °F 77% 30.03 in 10.0 mi SSW 3.5 mph - N/A   Clear
11:54 PM 55.6 °F - 50.2 °F 82% 30.03 in 10.0 mi Calm Calm - N/A   Clear